H1 CPF 2 NER 2022 7 7 9 188 01 glonass135 H2 1600801 9135 41330 2022 7 7 0 0 0 2022 7 10 23 45 0 900 1 1 0 0 0 1 H9 10 0 59767 0.00000 0 1891295.854 -20966610.785 -14373143.795 10 0 59767 900.00000 0 2241916.416 -19067640.489 -16770919.000 10 0 59767 1800.00000 0 2823116.294 -16940428.132 -18842352.230 10 0 59767 2700.00000 0 3651896.701 -14648802.692 -20547255.481 10 0 59767 3600.00000 0 4732866.443 -12260487.777 -21852605.029 10 0 59767 4500.00000 0 6057842.460 -9844410.551 -22733174.383 10 0 59767 5400.00000 0 7605999.915 -7467979.483 -23172013.013 10 0 59767 6300.00000 0 9344565.403 -5194444.236 -23160762.697 10 0 59767 7200.00000 0 11230023.984 -3080447.119 -22699806.482 10 0 59767 8100.00000 0 13209789.472 -1173866.812 -21798248.571 10 0 59767 9000.00000 0 15224268.185 487957.472 -20473726.440 10 0 59767 9900.00000 0 17209230.164 1879549.336 -18752059.603 10 0 59767 10800.00000 0 19098389.263 2988113.068 -16666742.307 10 0 59767 11700.00000 0 20826085.046 3813814.133 -14258290.162 10 0 59767 12600.00000 0 22329955.142 4369512.590 -11573453.420 10 0 59767 13500.00000 0 23553487.279 4679962.523 -8664311.885 10 0 59767 14400.00000 0 24448345.140 4780512.582 -5587268.672 10 0 59767 15300.00000 0 24976371.485 4715363.372 -2401961.924 10 0 59767 16200.00000 0 25111185.372 4535455.792 829884.871 10 0 59767 17100.00000 0 24839307.031 4296079.660 4045652.198 10 0 59767 18000.00000 0 24160763.510 4054303.574 7183030.787 10 0 59767 18900.00000 0 23089149.671 3866334.322 10181221.949 10 0 59767 19800.00000 0 21651141.639 3784917.104 12982109.233 10 0 59767 20700.00000 0 19885482.535 3856886.100 15531379.024 10 0 59767 21600.00000 0 17841482.042 4120968.676 17779568.950 10 0 59767 22500.00000 0 15577091.473 4605936.033 19683024.189 10 0 59767 23400.00000 0 13156633.606 5329178.740 21204743.509 10 0 59767 24300.00000 0 10648280.698 6295768.019 22315098.979 10 0 59767 25200.00000 0 8121384.568 7498043.594 22992415.539 10 0 59767 26100.00000 0 5643768.873 8915747.029 23223399.087 10 0 59767 27000.00000 0 3279095.301 10516696.929 23003404.498 10 0 59767 27900.00000 0 1084412.528 12257979.771 22336537.753 10 0 59767 28800.00000 0 -892010.441 14087608.475 21235589.356 10 0 59767 29700.00000 0 -2612476.626 15946581.116 19721799.271 10 0 59767 30600.00000 0 -4051204.482 17771255.087 17824456.745 10 0 59767 31500.00000 0 -5195166.163 19495938.197 15580341.639 10 0 59767 32400.00000 0 -6044385.625 21055588.588 13033017.028 10 0 59767 33300.00000 0 -6611684.097 22388510.123 10231985.990 10 0 59767 34200.00000 0 -6921883.850 23438929.406 7231728.581 10 0 59767 35100.00000 0 -7010504.316 24159345.116 4090637.638 10 0 59767 36000.00000 0 -6922006.380 24512549.557 869874.548 10 0 59767 36900.00000 0 -6707660.164 24473235.981 -2367831.870 10 0 59767 37800.00000 0 -6423127.919 24029122.756 -5559418.826 10 0 59767 38700.00000 0 -6125866.032 23181546.080 -8642730.020 10 0 59767 39600.00000 0 -5872457.863 21945495.695 -11557737.429 10 0 59767 40500.00000 0 -5715992.089 20349091.964 -14247719.355 10 0 59767 41400.00000 0 -5703599.039 18432526.510 -16660370.785 10 0 59767 42300.00000 0 -5874250.450 16246511.539 -18748823.677 10 0 59767 43200.00000 0 -6256916.480 13850303.623 -20472557.117 10 0 59767 44100.00000 0 -6869158.248 11309385.455 -21798179.855 10 0 59767 45000.00000 0 -7716215.308 8692903.239 -22700070.557 10 0 59767 45900.00000 0 -8790626.303 6070967.004 -23160864.278 10 0 59767 46800.00000 0 -10072398.414 3511926.353 -23171776.842 10 0 59767 47700.00000 0 -11529718.029 1079734.639 -22732762.006 10 0 59767 48600.00000 0 -13120172.494 -1168489.767 -21852499.527 10 0 59767 49500.00000 0 -14792431.542 -3184605.145 -20548215.346 10 0 59767 50400.00000 0 -16488317.944 -4931203.656 -18845338.154 10 0 59767 51300.00000 0 -18145180.930 -6382913.127 -16776999.486 10 0 59767 52200.00000 0 -19698473.486 -7527191.329 -14383387.246 10 0 59767 53100.00000 0 -21084426.195 -8364581.731 -11710965.223 10 0 59767 54000.00000 0 -22242706.401 -8908422.128 -8811573.491 10 0 59767 54900.00000 0 -23118952.055 -9184020.098 -5741426.760 10 0 59767 55800.00000 0 -23667074.751 -9227331.264 -2560029.746 10 0 59767 56700.00000 0 -23851235.984 -9083196.968 670969.932 10 0 59767 57600.00000 0 -23647414.175 -8803216.140 3888969.571 10 0 59767 58500.00000 0 -23044496.915 -8443341.286 7031617.294 10 0 59767 59400.00000 0 -22044852.505 -8061299.964 10038013.167 10 0 59767 60300.00000 0 -20664356.434 -7713950.333 12849882.747 10 0 59767 61200.00000 0 -18931870.998 -7454682.029 15412700.685 10 0 59767 62100.00000 0 -16888198.875 -7330971.793 17676743.139 10 0 59767 63000.00000 0 -14584553.135 -7382196.799 19598049.062 10 0 59767 63900.00000 0 -12080606.292 -7637797.988 21139272.081 10 0 59767 64800.00000 0 -9442198.243 -8115871.211 22270406.802 10 0 59767 65700.00000 0 -6738797.103 -8822246.322 22969375.602 10 0 59767 66600.00000 0 -4040817.312 -9750094.108 23222464.450 10 0 59767 67500.00000 0 -1416905.313 -10880079.148 23024599.010 10 0 59767 68400.00000 0 1068695.329 -12181053.907 22379455.061 10 0 59767 69300.00000 0 3358590.426 -13611266.785 21299400.274 10 0 59767 70200.00000 0 5404391.971 -15120035.235 19805267.395 10 0 59767 71100.00000 0 7168495.633 -16649815.259 17925962.059 10 0 59767 72000.00000 0 8625404.760 -18138581.597 15697911.689 10 0 59767 72900.00000 0 9762545.560 -19522419.269 13164365.108 10 0 59767 73800.00000 0 10580539.350 -20738217.738 10374555.620 10 0 59767 74700.00000 0 11092920.470 -21726353.853 7382743.414 10 0 59767 75600.00000 0 11325312.186 -22433249.797 4247155.856 10 0 59767 76500.00000 0 11314095.887 -22813696.981 1028846.622 10 0 59767 77400.00000 0 11104630.736 -22832846.506 -2209503.197 10 0 59767 78300.00000 0 10749100.322 -22467780.807 -5404817.600 10 0 59767 79200.00000 0 10304078.914 -21708598.927 -8494866.429 10 0 59767 80100.00000 0 9827922.033 -20558968.680 -11419488.716 10 0 59767 81000.00000 0 9378093.469 -19036121.868 -14121773.518 10 0 59767 81900.00000 0 9008543.446 -17170292.514 -16549174.188 10 0 59767 82800.00000 0 8767250.081 -15003621.954 -18654533.609 10 0 59767 83700.00000 0 8694028.991 -12588577.151 -20397000.214 10 0 59767 84600.00000 0 8818703.978 -9985949.022 -21742817.147 10 0 59767 85500.00000 0 9159716.032 -7262515.096 -22665969.752 10 0 59768 0.00000 0 9723228.876 -4488464.660 -23148679.753 10 0 59768 900.00000 0 10502768.492 -1734692.235 -23181737.797 10 0 59768 1800.00000 0 11479410.262 929924.467 -22764668.555 10 0 59768 2700.00000 0 12622506.201 3441154.698 -21905727.222 10 0 59768 3600.00000 0 13890920.474 5741841.106 -20621727.719 10 0 59768 4500.00000 0 15234721.224 7784024.606 -18937707.062 10 0 59768 5400.00000 0 16597257.607 9530681.005 -16886432.870 10 0 59768 6300.00000 0 17917535.071 10956999.198 -14507763.761 10 0 59768 7200.00000 0 19132789.558 12051149.735 -11847875.094 10 0 59768 8100.00000 0 20181153.203 12814513.783 -8958364.847 10 0 59768 9000.00000 0 21004300.275 13261364.796 -5895256.597 10 0 59768 9900.00000 0 21549962.898 13418017.772 -2717918.575 10 0 59768 10800.00000 0 21774211.492 13321483.060 512080.753 10 0 59768 11700.00000 0 21643404.540 13017682.132 3732158.916 10 0 59768 12600.00000 0 21135725.984 12559300.832 6879924.862 10 0 59768 13500.00000 0 20242245.580 12003370.670 9894380.751 10 0 59768 14400.00000 0 18967457.292 11408679.936 12717097.304 10 0 59768 15300.00000 0 17329272.388 10833123.441 15293340.328 10 0 59768 16200.00000 0 15358466.492 10331102.239 17573127.100 10 0 59768 17100.00000 0 13097602.303 9951082.573 19512192.605 10 0 59768 18000.00000 0 10599471.541 9733416.687 21072847.229 10 0 59768 18900.00000 0 7925119.372 9708517.314 22224709.636 10 0 59768 19800.00000 0 5141531.919 9895463.036 22945300.771 10 0 59768 20700.00000 0 2319081.530 10301093.859 23220487.371 10 0 59768 21600.00000 0 -471165.499 10919636.091 23044766.121 10 0 59768 22500.00000 0 -3160168.063 11732873.587 22421382.349 10 0 59768 23400.00000 0 -5683544.117 12710859.692 21362280.125 10 0 59768 24300.00000 0 -7984010.423 13813141.510 19887883.704 10 0 59768 25200.00000 0 -10013526.954 14990446.512 18026713.359 10 0 59768 26100.00000 0 -11735056.644 16186761.741 15814841.908 10 0 59768 27000.00000 0 -13123866.941 17341718.933 13295201.417 10 0 59768 27900.00000 0 -14168318.685 18393185.447 10516752.658 10 0 59768 28800.00000 0 -14870109.069 19279951.594 7533533.053 10 0 59768 29700.00000 0 -15243958.721 19944400.307 4403601.499 10 0 59768 30600.00000 0 -15316756.434 20335045.362 1187900.960 10 0 59768 31500.00000 0 -15126198.331 20408829.541 -2050938.188 10 0 59768 32400.00000 0 -14718980.019 20133084.141 -5249829.634 10 0 59768 33300.00000 0 -14148619.497 19487065.588 -8346472.150 10 0 59768 34200.00000 0 -13473004.451 18463003.009 -11280574.438 10 0 59768 35100.00000 0 -12751769.380 17066611.629 -13995038.694 10 0 59768 36000.00000 0 -12043615.009 15317049.736 -16437078.743 10 0 59768 36900.00000 0 -11403684.707 13246320.860 -18559250.197 10 0 59768 37800.00000 0 -10881109.701 10898146.356 -20320372.309 10 0 59768 38700.00000 0 -10516827.261 8326355.912 -21686323.779 10 0 59768 39600.00000 0 -10341763.925 5592863.765 -22630697.499 10 0 59768 40500.00000 0 -10375459.947 2765315.429 -23135302.487 10 0 59768 41400.00000 0 -10625192.129 -85496.917 -23190504.343 10 0 59768 42300.00000 0 -11085630.972 -2888342.870 -22795398.806 10 0 59768 43200.00000 0 -11739045.528 -5574274.099 -21957816.234 10 0 59768 44100.00000 0 -12556046.339 -8079244.426 -20694157.945 10 0 59768 45000.00000 0 -13496834.450 -10346522.107 -19029068.386 10 0 59768 45900.00000 0 -14512903.472 -12328795.765 -16994950.055 10 0 59768 46800.00000 0 -15549122.968 -13989888.292 -14631330.796 10 0 59768 47700.00000 0 -16546115.619 -15306009.289 -11984095.808 10 0 59768 48600.00000 0 -17442828.582 -16266495.847 -9104599.038 10 0 59768 49500.00000 0 -18179191.379 -16874012.624 -6048670.830 10 0 59768 50400.00000 0 -18698749.075 -17144204.416 -2875540.680 10 0 59768 51300.00000 0 -18951160.520 -17104817.180 353304.489 10 0 59768 52200.00000 0 -18894456.960 -16794325.345 3575304.955 10 0 59768 53100.00000 0 -18496966.247 -16260123.692 6728033.137 10 0 59768 54000.00000 0 -17738821.694 -15556360.122 9750396.027 10 0 59768 54900.00000 0 -16612991.766 -14741500.456 12583812.310 10 0 59768 55800.00000 0 -15125786.705 -13875727.498 15173341.728 10 0 59768 56700.00000 0 -13296819.748 -13018283.435 17468745.367 10 0 59768 57600.00000 0 -11158423.136 -12224866.968 19425456.738 10 0 59768 58500.00000 0 -8754541.734 -11545194.253 21005445.215 10 0 59768 59400.00000 0 -6139148.579 -11020826.018 22177955.409 10 0 59768 60300.00000 0 -3374246.440 -10683352.128 22920108.339 10 0 59768 61200.00000 0 -527536.796 -10553010.192 23217352.621 10 0 59768 62100.00000 0 2330148.608 -10637796.781 23063756.682 10 0 59768 63000.00000 0 5127548.407 -10933109.471 22462135.731 10 0 59768 63900.00000 0 7795693.312 -11421935.824 21424010.223 10 0 59768 64800.00000 0 10270536.607 -12075582.565 19969395.564 10 0 59768 65700.00000 0 12495384.498 -12854915.521 18126425.966 10 0 59768 66600.00000 0 14423025.134 -13712059.183 15930818.594 10 0 59768 67500.00000 0 16017467.463 -14592485.103 13425187.324 10 0 59768 68400.00000 0 17255217.009 -15437401.484 10658218.566 10 0 59768 69300.00000 0 18126034.851 -16186343.030 7683724.730 10 0 59768 70200.00000 0 18633147.893 -16779851.150 4559593.618 10 0 59768 71100.00000 0 18792901.691 -17162130.208 1346654.511 10 0 59768 72000.00000 0 18633870.875 -17283566.193 -1892516.137 10 0 59768 72900.00000 0 18195465.487 -17102999.722 -5094825.056 10 0 59768 73800.00000 0 17526093.209 -16589655.639 -8197903.319 10 0 59768 74700.00000 0 16680956.512 -15724646.195 -11141332.594 10 0 59768 75600.00000 0 15719579.377 -14501983.057 -13867831.350 10 0 59768 76500.00000 0 14703169.633 -12929054.515 -16324376.792 10 0 59768 77400.00000 0 13691929.747 -11026547.250 -18463239.897 10 0 59768 78300.00000 0 12742430.657 -8827815.728 -20242913.064 10 0 59768 79200.00000 0 11905160.030 -6377725.669 -21628912.507 10 0 59768 80100.00000 0 11222348.470 -3731020.265 -22594440.241 10 0 59768 81000.00000 0 10726164.802 -950277.621 -23120893.721 10 0 59768 81900.00000 0 10437355.569 1896455.322 -23198214.333 10 0 59768 82800.00000 0 10364384.800 4738253.851 -22825069.152 10 0 59768 83700.00000 0 10503108.840 7504024.214 -22008863.649 10 0 59768 84600.00000 0 10836998.539 10125218.216 -20765586.107 10 0 59768 85500.00000 0 11337898.159 12538441.887 -19119487.622 10 0 59769 0.00000 0 11967288.015 14687851.107 -17102604.628 10 0 59769 900.00000 0 12677997.384 16527237.338 -14754132.332 10 0 59769 1800.00000 0 13416294.360 18021715.550 -12119664.073 10 0 59769 2700.00000 0 14124265.787 19148949.750 -9250307.525 10 0 59769 3600.00000 0 14742386.446 19899863.780 -6201697.189 10 0 59769 4500.00000 0 15212169.985 20278810.435 -3032920.900 10 0 59769 5400.00000 0 15478790.329 20303193.021 194619.148 10 0 59769 6300.00000 0 15493563.552 20002556.217 3418389.323 10 0 59769 7200.00000 0 15216185.944 19417185.098 6575928.917 10 0 59769 8100.00000 0 14616634.106 18596271.473 9606053.111 10 0 59769 9000.00000 0 13676646.822 17595724.630 12450031.763 10 0 59769 9900.00000 0 12390725.866 16475718.257 15052721.551 10 0 59769 10800.00000 0 10766612.654 15298076.198 17363630.092 10 0 59769 11700.00000 0 8825219.452 14123606.352 19337891.849 10 0 59769 12600.00000 0 6600016.308 13009494.170 20937137.256 10 0 59769 13500.00000 0 4135897.437 12006864.698 22130238.589 10 0 59769 14400.00000 0 1487572.235 11158615.170 22893918.250 10 0 59769 15300.00000 0 -1282454.051 10497608.995 23213207.606 10 0 59769 16200.00000 0 -4106227.963 10045307.079 23081747.211 10 0 59769 17100.00000 0 -6912927.962 9810894.284 22501922.044 10 0 59769 18000.00000 0 -9631571.134 9790938.381 21484828.282 10 0 59769 18900.00000 0 -12193735.030 9969596.610 20050071.281 10 0 59769 19800.00000 0 -14536182.093 10319362.037 18225397.471 10 0 59769 20700.00000 0 -16603277.525 10802319.160 16046166.175 10 0 59769 21600.00000 0 -18349099.740 11371856.514 13554670.503 10 0 59769 22500.00000 0 -19739154.918 11974764.409 10799319.641 10 0 59769 23400.00000 0 -20751623.445 12553629.204 7833697.940 10 0 59769 24300.00000 0 -21378085.609 13049422.471 4715518.979 10 0 59769 25200.00000 0 -21623695.879 13404174.635 1505495.226 10 0 59769 26100.00000 0 -21506798.442 13563618.644 -1733853.863 10 0 59769 27000.00000 0 -21058000.699 13479690.256 -4939431.043 10 0 59769 27900.00000 0 -20318744.544 13112777.398 -8048802.542 10 0 59769 28800.00000 0 -19339436.903 12433621.826 -11001425.685 10 0 59769 29700.00000 0 -18177219.807 11424791.229 -13739837.687 10 0 59769 30600.00000 0 -16893475.624 10081658.396 -16210781.348 10 0 59769 31500.00000 0 -15551174.108 8412845.348 -18366244.880 10 0 59769 32400.00000 0 -14212174.307 6440113.237 -20164395.331 10 0 59769 33300.00000 0 -12934595.752 4197702.371 -21570387.546 10 0 59769 34200.00000 0 -11770369.895 1731150.110 -22557033.373 10 0 59769 35100.00000 0 -10763074.514 -904363.855 -23105319.047 10 0 59769 36000.00000 0 -9946141.287 -3646075.695 -23204761.726 10 0 59769 36900.00000 0 -9341510.645 -6426013.287 -22853599.495 10 0 59769 37800.00000 0 -8958788.819 -9173591.103 -22058812.301 10 0 59769 38700.00000 0 -8794940.764 -11818316.821 -20835974.502 10 0 59769 39600.00000 0 -8834530.188 -14292497.898 -19208942.695 10 0 59769 40500.00000 0 -9050495.045 -16533836.803 -17209385.508 10 0 59769 41400.00000 0 -9405424.647 -18487808.375 -14876164.713 10 0 59769 42300.00000 0 -9853283.773 -20109721.872 -12254579.783 10 0 59769 43200.00000 0 -10341510.665 -21366383.440 -9395490.348 10 0 59769 44100.00000 0 -10813400.373 -22237291.309 -6354333.215 10 0 59769 45000.00000 0 -11210673.082 -22715315.182 -3190052.638 10 0 59769 45900.00000 0 -11476119.444 -22806832.738 36035.905 10 0 59769 46800.00000 0 -11556211.676 -22531318.525 3261426.963 10 0 59769 47700.00000 0 -11403570.660 -21920403.144 6423628.893 10 0 59769 48600.00000 0 -10979185.171 -21016442.579 9461367.370 10 0 59769 49500.00000 0 -10254289.626 -19870657.731 12315765.824 10 0 59769 50400.00000 0 -9211820.891 -18540922.038 14931480.333 10 0 59769 51300.00000 0 -7847392.093 -17089289.546 17257767.498 10 0 59769 52200.00000 0 -6169741.292 -15579366.550 19249465.090 10 0 59769 53100.00000 0 -4200634.686 -14073636.346 20867866.806 10 0 59769 54000.00000 0 -1974226.470 -12630848.573 22081474.540 10 0 59769 54900.00000 0 464100.049 -11303581.950 22866613.743 10 0 59769 55800.00000 0 3059363.880 -10136082.118 23207899.875 10 0 59769 56700.00000 0 5749024.554 -9162464.939 23098546.630 10 0 59769 57600.00000 0 8465344.285 -8405360.527 22540509.419 10 0 59769 58500.00000 0 11137977.440 -7875055.156 21544460.486 10 0 59769 59400.00000 0 13696680.906 -7569167.426 20129595.148 10 0 59769 60300.00000 0 16074033.450 -7472872.845 18323271.734 10 0 59769 61200.00000 0 18208051.072 -7559667.959 16160491.054 10 0 59769 62100.00000 0 20044589.317 -7792642.311 13683224.402 10 0 59769 63000.00000 0 21539431.832 -8126204.855 10939602.272 10 0 59769 63900.00000 0 22659977.150 -8508191.908 7982979.052 10 0 59769 64800.00000 0 23386452.422 -8882267.090 4870891.746 10 0 59769 65700.00000 0 23712602.601 -9190510.881 1663933.245 10 0 59769 66600.00000 0 23645825.749 -9376088.969 -1575437.094 10 0 59769 67500.00000 0 23206748.846 -9385884.852 -4784121.392 10 0 59769 68400.00000 0 22428262.369 -9172983.518 -7899624.477 10 0 59769 69300.00000 0 21354055.140 -8698899.323 -10861282.760 10 0 59769 70200.00000 0 20036712.364 -7935452.217 -13611455.501 10 0 59769 71100.00000 0 18535458.330 -6866211.604 -16096654.168 10 0 59769 72000.00000 0 16913640.261 -5487445.847 -18268587.026 10 0 59769 72900.00000 0 15236060.490 -3808536.675 -20085098.279 10 0 59769 73800.00000 0 13566270.062 -1851840.614 -21510983.566 10 0 59769 74700.00000 0 11963938.040 347996.865 -22518666.394 10 0 59769 75600.00000 0 10482406.872 2745245.735 -23088723.214 10 0 59769 76500.00000 0 9166535.759 5284764.006 -23210248.016 10 0 59769 77400.00000 0 8050921.349 7904068.600 -22881050.547 10 0 59769 78300.00000 0 7158568.734 10535718.409 -22107685.501 10 0 59769 79200.00000 0 6500066.606 13109910.708 -20905313.172 10 0 59769 80100.00000 0 6073299.188 15557183.438 -19297395.143 10 0 59769 81000.00000 0 5863705.084 17811111.891 -17315231.517 10 0 59769 81900.00000 0 5845070.419 19810888.718 -14997348.962 10 0 59769 82800.00000 0 5980821.559 21503681.064 -12388751.549 10 0 59769 83700.00000 0 6225761.951 22846668.056 -9540048.763 10 0 59769 84600.00000 0 6528179.327 23808675.051 -6506477.225 10 0 59769 85500.00000 0 6832234.174 24371337.655 -3346834.767 10 0 59770 0.00000 0 7080528.767 24529748.062 -122347.302 10 0 59770 900.00000 0 7216748.670 24292557.555 3104511.832 10 0 59770 1800.00000 0 7188265.220 23681531.408 6271223.225 10 0 59770 2700.00000 0 6948589.853 22730575.435 9316426.518 10 0 59770 3600.00000 0 6459576.470 21484274.719 12181102.100 10 0 59770 4500.00000 0 5693278.942 19996005.651 14809708.658 10 0 59770 5400.00000 0 4633384.995 18325699.893 17151254.751 10 0 59770 6300.00000 0 3276165.171 16537353.204 19160284.155 10 0 59770 7200.00000 0 1630895.696 14696382.680 20797756.196 10 0 59770 8100.00000 0 -280264.208 12866942.197 22031804.385 10 0 59770 9000.00000 0 -2422937.523 11109307.505 22838358.819 10 0 59770 9900.00000 0 -4751711.480 9477439.749 23201620.186 10 0 59770 10800.00000 0 -7211789.461 8016828.751 23114375.961 10 0 59770 11700.00000 0 -9741046.028 6762705.938 22578152.083 10 0 59770 12600.00000 0 -12272401.366 5738701.694 21603196.388 10 0 59770 13500.00000 0 -14736417.789 4956003.406 20208293.096 10 0 59770 14400.00000 0 -17064011.249 4413049.747 18420410.806 10 0 59770 15300.00000 0 -19189165.340 4095774.393 16274189.646 10 0 59770 16200.00000 0 -21051534.645 3978389.134 13811276.472 10 0 59770 17100.00000 0 -22598828.365 4024673.524 11079520.100 10 0 59770 18000.00000 0 -23788873.731 4189716.598 8132041.707 10 0 59770 18900.00000 0 -24591271.959 4422036.587 5026198.338 10 0 59770 19800.00000 0 -24988576.392 4665988.208 1822459.874 10 0 59770 20700.00000 0 -24976942.590 4864354.466 -1416777.824 10 0 59770 21600.00000 0 -24566222.644 4961011.719 -4628419.539 10 0 59770 22500.00000 0 -23779499.683 4903553.416 -7749911.862 10 0 59770 23400.00000 0 -22652082.579 4645759.620 -10720473.265 10 0 59770 24300.00000 0 -21230003.979 4149806.083 -13482287.802 10 0 59770 25200.00000 0 -19568085.937 3388117.896 -15981638.071 10 0 59770 26100.00000 0 -17727655.833 2344788.205 -18169954.473 10 0 59770 27000.00000 0 -15774009.777 1016501.249 -20004760.005 10 0 59770 27900.00000 0 -13773731.065 -587079.737 -21450492.250 10 0 59770 28800.00000 0 -11791976.861 -2443476.281 -22479186.980 10 0 59770 29700.00000 0 -9889846.971 -4518103.283 -23071010.947 10 0 59770 30600.00000 0 -8121944.514 -6765492.822 -23214634.568 10 0 59770 31500.00000 0 -6534229.630 -9130981.822 -22907438.411 10 0 59770 32400.00000 0 -5162254.551 -11552793.238 -22155550.705 10 0 59770 33300.00000 0 -4029851.999 -13964424.204 -20973716.184 10 0 59770 34200.00000 0 -3148329.737 -16297241.960 -19384999.697 10 0 59770 35100.00000 0 -2516202.780 -18483180.162 -17420330.951 10 0 59770 36000.00000 0 -2119472.415 -20457424.109 -15117899.546 10 0 59770 36900.00000 0 -1932438.476 -22160974.016 -12522412.153 10 0 59770 37800.00000 0 -1919009.202 -23542980.607 -9684226.111 10 0 59770 38700.00000 0 -2034452.478 -24562756.771 -6658375.896 10 0 59770 39600.00000 0 -2227514.010 -25191382.328 -3503510.995 10 0 59770 40500.00000 0 -2442812.813 -25412835.824 -280765.289 10 0 59770 41400.00000 0 -2623412.920 -25224606.811 2947420.695 10 0 59770 42300.00000 0 -2713462.954 -24637763.452 6118502.243 10 0 59770 43200.00000 0 -2660792.367 -23676472.917 9171034.872 10 0 59770 44100.00000 0 -2419354.945 -22376994.565 12045857.883 10 0 59770 45000.00000 0 -1951416.542 -20786187.764 14687234.545 10 0 59770 45900.00000 0 -1229394.522 -18959596.228 17043927.338 10 0 59770 46800.00000 0 -237270.836 -16959188.220 19070187.929 10 0 59770 47700.00000 0 1028481.702 -14850846.231 20726643.028 10 0 59770 48600.00000 0 2558500.300 -12701710.032 21981059.328 10 0 59770 49500.00000 0 4330678.787 -10577483.083 22808972.897 10 0 59770 50400.00000 0 6310855.829 -8539813.899 23194170.722 10 0 59770 51300.00000 0 8454018.242 -6643860.923 23129014.843 10 0 59770 52200.00000 0 10705971.393 -4936141.982 22614602.248 10 0 59770 53100.00000 0 13005408.987 -3452757.868 21660756.613 10 0 59770 54000.00000 0 15286297.671 -2218064.111 20285851.058 10 0 59770 54900.00000 0 17480478.306 -1243846.521 18516464.182 10 0 59770 55800.00000 0 19520376.073 -529035.210 16386874.909 10 0 59770 56700.00000 0 21341706.507 -59969.169 13938404.831 10 0 59770 57600.00000 0 22886064.074 188799.725 11218619.927 10 0 59770 58500.00000 0 24103284.181 253197.275 8280406.657 10 0 59770 59400.00000 0 24953478.692 177867.847 5180940.200 10 0 59770 60300.00000 0 25408658.419 14040.674 1980565.154 10 0 59770 61200.00000 0 25453873.340 -182887.060 -1258388.748 10 0 59770 62100.00000 0 25087821.810 -355946.571 -4472831.848 10 0 59770 63000.00000 0 24322902.604 -449261.642 -7600155.579 10 0 59770 63900.00000 0 23184707.536 -410666.004 -10579463.608 10 0 59770 64800.00000 0 21710976.372 -194161.333 -13352767.869 10 0 59770 65700.00000 0 19950058.675 237889.754 -15866125.029 10 0 59770 66600.00000 0 17958948.266 912929.709 -18070690.367 10 0 59770 67500.00000 0 15800973.900 1846809.530 -19923668.181 10 0 59770 68400.00000 0 13543243.999 3042889.234 -21389140.243 10 0 59770 69300.00000 0 11253953.326 4491673.479 -22438756.565 10 0 59770 70200.00000 0 8999664.621 6170997.719 -23052275.887 10 0 59770 71100.00000 0 6842678.691 8046757.015 -23217946.415 10 0 59770 72000.00000 0 4838602.180 10074146.768 -22932720.558 10 0 59770 72900.00000 0 3034213.290 12199363.402 -22202300.721 10 0 59770 73800.00000 0 1465712.838 14361693.995 -21041016.316 10 0 59770 74700.00000 0 157431.717 16495907.771 -19471535.279 10 0 59770 75600.00000 0 -878953.577 18534850.150 -17524416.318 10 0 59770 76500.00000 0 -1644666.777 20412131.755 -15237510.941 10 0 59770 77400.00000 0 -2153530.892 22064800.959 -12655226.973 10 0 59770 78300.00000 0 -2431135.019 23435889.351 -9827667.758 10 0 59770 79200.00000 0 -2513505.424 24476724.778 -6809663.385 10 0 59770 80100.00000 0 -2445337.927 25148916.188 -3659712.402 10 0 59770 81000.00000 0 -2277866.698 25425928.125 -438854.055 10 0 59770 81900.00000 0 -2066459.686 25294179.607 2790507.670 10 0 59770 82800.00000 0 -1868042.083 24753621.796 5965805.776 10 0 59770 83700.00000 0 -1738456.454 23817770.422 9025515.046 10 0 59770 84600.00000 0 -1729870.705 22513191.433 11910337.088 10 0 59770 85500.00000 0 -1888343.098 20878460.975 14564343.065 99